User: anonymous   Login
Location: Unspecified
(0.0000°N, 0.0000°E)
Time: 08:08:12
(UTC+00:00)
Language:

NNS O-2 - Orbit

View from above orbital plane
View from above orbital plane
View from above satellite
View from above satellite

Ground track
Ground track

The orbit data is extracted from the following two-line orbital elements,

1   965U 64083D   18347.64212069 +.00000023 +00000-0 +19122-4 0  9998
2   965 090.0122 192.5236 0041142 018.3321 045.6730 13.56724691671827
Epoch (UTC): 13 December 2018 15:24:39
Eccentricity: 0.0041142
inclination: 90.0122°
perigee height: 1017 km
apogee height: 1078 km
right ascension of ascending node: 192.5236°
argument of perigee: 18.3321°
revolutions per day: 13.56724691
mean anomaly at epoch: 45.6730°
orbit number at epoch: 67182

The dashed part of the orbit path shows where the satellite is in the earth's shadow,  

DLR